Regional Weather Roundup
Issued by NWS Wakefield, VA

Home | Current Version | Previous Version | Text Only | Print | Product List | Glossary Off
Versions: 1 2 3 4 5 6 7 8 9 10 11 12 13 14 15 16 17 18 19 20 21 22 23 24 25 26 27 28 29 30 31 32 33 34 35 36 37 38 39 40 41 42 43 44 45 46 47 48 49 50

000
ASUS41 KAKQ 280110
RWRAKQ

REGIONAL WEATHER ROUNDUP
NATIONAL WEATHER SERVICE WAKEFIELD VA
800 PM EST FRI FEB 27 2015

Note: "fair" indicates few or no clouds below 12,000 feet with no
significant weather and/or obstructions to visibility. * = Denotes
station may not report precipitation (e.g., rain,snow,etc.),
thunder or fog.

VAZ042-051-052>054-056-280200-
NORTHERN VIRGINIA

CITY           SKY/WX    TMP DP  RH WIND       PRES   REMARKS
WASH NATIONAL  CLEAR     30  10  43 N8        30.57R
DULLES         CLEAR     26   5  40 N8        30.56R
FORT BELVOIR   CLEAR     26  11  52 CALM      30.57R
QUANTICO       CLEAR     28  12  51 NE5       30.58R
FREDERICKSBRG* FAIR      30  14  52 NE3       30.56R
STAFFORD*      CLEAR     26  10  50 N3        30.60R
WARRENTON      CLEAR     28  14  56 N7        30.55R
CULPEPER*      CLEAR     27  10  50 N3        30.55R
MANASSAS*      NOT AVBL
LEESBURG*      CLEAR     28   9  43 N10       30.58R WCI  19
WINCHESTER     CLEAR     25   0  33 NW12      30.56R WCI  14
FRONT ROYAL*   FAIR      27   5  39 NW5       30.54R
LURAY*         FAIR      28  10  47 N7        30.53R
$$

VAZ048-049-060>072-079>083-280200-
CENTRAL AND SOUTH CENTRAL VIRGINIA

CITY           SKY/WX    TMP DP  RH WIND       PRES   REMARKS
RICHMOND       CLEAR     30  17  58 NE3       30.53R
CHESTERFIELD*  FAIR      30  12  47 E5        30.53R
PETERSBURG*    CLEAR     31  25  78 E3        30.53R
HANOVER        CLEAR     28  16  60 VRB3      30.55R
TAPPAHANNOCK*  CLEAR     28  17  64 CALM      30.55R
QUINTON*       FAIR      28  19  68 CALM      30.54R
CHARLOTTSVILLE CLEAR     28  12  51 N7        30.51R
GORDONSVILLE*  MOCLDY    27  13  55 CALM      30.53R
ORANGE*        CLEAR     25  18  74 CALM      30.55R
LOUISA*        CLEAR     28  12  50 NE6       30.51R
BUMPASS*       FAIR      29  13  51 NE3       30.53R
FARMVILLE*     CLEAR     32  20  61 N3        30.49R
CREWE*         FAIR      31  24  75 NE3       30.49S
FORT PICKETT*  FAIR      30  25  81 NE6       30.49S
CHASE CITY*    FAIR      33  17  51 NW3       30.48R
CLARKSVILLE*   FAIR      34  19  55 N3        30.48R
SOUTH HILL*    CLEAR     31  17  54 CALM      30.55R
LAWRENCEVILLE* FAIR      32  27  82 CALM      30.49R
EMPORIA*       CLEAR     30  27  86 CALM      30.54R
$$

VAZ088>098-280200-
SOUTHEAST VIRGINIA

CITY           SKY/WX    TMP DP  RH WIND       PRES   REMARKS
NORFOLK        CLEAR     30  21  69 NE14      30.53R WCI  19
VIRGINIA BEACH CLEAR     31  21  66 NE12      30.53R WCI  22
NORFOLK NAVAL  CLEAR     32  23  69 NE13      30.55R WCI  22
WEST POINT*    CLEAR     24  20  82 CALM      30.56R
SALUDA*        FAIR      27  21  78 CALM      30.54R
NEWPORT NEWS   CLEAR     30  22  72 NE6       30.54R
LANGLEY AFB    CLEAR     29  22  74 NE8       30.54R
FORT EUSTIS    CLEAR     29  24  82 E3        30.52R
WILLIAMSBURG*  CLEAR     30  27  86 CALM      30.54R
HR EXEC AP*    FAIR      28  21  74 NE6       30.55R
FRANKLIN*      MOCLDY    30  26  84 NE5       30.54R
WAKEFIELD      CLEAR     30  24  78 CALM      30.53R
$$

VAZ020-022-025-037-045-280200-
WEST CENTRAL AND SOUTHWEST VIRGINIA

CITY           SKY/WX    TMP DP  RH WIND       PRES   REMARKS
STAUNTON*      CLEAR     26   9  49 N8        30.51R
WAYNESBORO*    FAIR      25   9  50 N6        30.47R
HOT SPRINGS VA CLEAR     13   3  64 NW9       30.30S
LYNCHBURG      CLEAR     29   9  43 N5        30.49R
DANVILLE       CLEAR     32  14  47 NE7       30.49R
SOUTH BOSTON*  FAIR      33  14  45 CALM      30.50R
MARTINSVILLE   CLEAR     32  14  48 N5        30.50R
ROANOKE        CLEAR     27   8  44 N8        30.51R
BLACKSBURG     FAIR      22   8  55 NW9       30.46R
DUBLIN*        CLEAR     24  11  56 N8        30.44S
MARION*        CLEAR     20  10  64 CALM      30.43S
HILLSVILLE*    CLEAR     22  11  61 N9        30.38S
RICHLANDS*     FAIR      19   8  62 N3        30.41R
WISE*          CLEAR     18   9  68 NE5       30.42R
ABINGDON*      CLEAR     24  13  64 CALM      30.43R
$$

MDZ021>025-VAZ099-100-280200-
SOUTHERN MARYLAND AND THE DELMARVA PENINSULA

CITY           SKY/WX    TMP DP  RH WIND       PRES   REMARKS
PATUXENT RIVER PTCLDY    25  13  60 NE6       30.56R
BAY BRIDGE APT   N/A     27  14  59 N3        30.56S
LEONARDTOWN    CLEAR     27  19  74 CALM      30.57R
DOVER          CLEAR     22  12  64 N5        30.57R
GEORGETOWN     CLEAR     26  12  55 CALM      30.56R
EASTON         NOT AVBL
CAMBRIDGE      CLEAR     30  14  51 N3        30.56R
SALISBURY      CLEAR     28  14  55 N5        30.55R
OCEAN CITY     CLEAR     22  16  78 MISG      30.56R
WALLOPS ISLAND CLEAR     24  23  96 N3        30.56R FOG
ACCOMACK*      CLEAR     27  23  86 N3        30.54R
$$

NCZ012>017-030>032-280200-
NORTH CENTRAL AND EASTERN NORTH CAROLINA

CITY           SKY/WX    TMP DP  RH WIND       PRES   REMARKS
ROANOKE RAPIDS FAIR      34  28  80 E6        30.50R
RALEIGH        PTCLDY    36  20  52 NE3       30.48R
ELIZABETH CITY CLEAR     31  26  82 NE12      30.52R WCI  22
AHOSKIE*       CLEAR     31  25  78 NE3       30.53R
EDENTON*       CLEAR     32  27  83 NE6       30.52R
CURRITUCK*     CLEAR     32  26  79 N9        30.52R
KILL DEVIL HLS CLEAR     34  29  81 N9G18     30.49R
MANTEO         CLEAR     34  28  80 NE16      30.50R WCI  23
CAPE HATTERAS  FAIR      37  31  78 NE9       30.47R
TARBORO*       FAIR      35  28  74 NE6       30.51R
GOLDSBORO      FAIR      41  33  73 N1        30.45R
WASHINGTON     CLEAR     35  27  73 NE9G16    30.50R
GREENVILLE     CLEAR     37  28  70 NE13      30.47R
NEW BERN       CLEAR     38  27  64 N3        30.47R
WILMINGTON     MOCLDY    38  35  89 CALM      30.44R
$$

VAZ048-280200-
ELSEWHERE

CITY           SKY/WX    TMP DP  RH WIND       PRES   REMARKS
HARRISBURG PA  CLEAR     21   5  50 NW14      30.56R WCI   8
BALTIMORE      CLEAR     26   7  44 NW6       30.55R
ANNAPOLIS      CLEAR     25  12  58 NW3       30.56R
ANDREWS AFB    CLEAR     22  11  62 NE5       30.55R
PHILADELPHIA   CLEAR     26   3  37 W9        30.57R
HENDERSON NC   CLEAR     32  18  55 CALM      30.48R
GREENSBORO     CLEAR     36  18  48 NE8       30.44R
ROCKY MOUNT    CLEAR     36  23  59 N6        30.49R
$$

VAZ100-280200-
MARINE

STATION/POSITION TIME  TEMP    WIND        PRES    WAVE   SWELL
                       AIR SEA DIR/SP/G            HT/PER HT/PER
                 (UTC) (F)     (DEG/KT/KT) (MB)    (FT/S) (FT/S)
BRANDYWINE LGT   0100   28 29  350/ 15/ 19 1034.5R
CAPE MAY NJ      0100          330/ 11/ 17   N/A
LEWES DE         0100   28 30  330/  8/ 10 1034.8R
15NM E FENWICK I 0100   29 36              1033.7R   5/11
OCEAN-CITY-INLET 0100   29 32   10/  6/  9 1034.1R
WACHAPREAGUE VA  0100   27 33   10/  2/  3 1034.1S
THOMAS POINT MD  0100   29 31  350/  8/  9 1036.0R
COVE POINT MD    0100   27      50/  8/ 10 1034.6F
SOLOMONS ISLAND  0100      33                N/A
BISHOPS HEAD MD  0100          360/  5/  6   N/A
CAMBRIDGE MD     0100           30/  3/  3   N/A
LEWISETTA VA     0100   29 32              1034.3S
RAPPAHANNOCK LGT 0100           20/ 10/ 11 1034.6R
STINGRAY PT      0100   30      40/ 12/ 14   N/A
YORK RVR RNG VA  0100           40/ 12/ 14   N/A
YORKTOWN VA      0100   28 33   50/  6/  7 1033.7S
DOMINION TERM VA 0100   30      50/  4/  8 1033.9R
KIPTOPEKE VA     0100      37   50/  4/  5   N/A
CHES BAY BRIDGE  0100   31 33   20/ 13/ 16 1033.3R
CAPE HENRY VA    0100   31      20/ 16/ 18 1032.4R
CHESAPEAKE LGHT  0000   32      30/ 17/ 18 1033.3R
WILLOUBY STN VA  0100   31      40/ 14/ 15 1034.2R
S CRANEY ISL VA  0100           30/  9/ 12   N/A
CAPE HENRY BUOY  0100      35                N/A     4/10   2/11
1ST LANDING BUOY 0100   31      30/ 12/ 14 1033.3R
OFFSHORE WE BUOY 0000      38                N/A     5/ 9   5/ 9
64NM E OF VA BCH 0100   40 59  360/ 17/ 21 1031.9R   6/11   5/11
DUCK PIER NC     0100           20/ 18/ 20   N/A
44100 DUCK FRF   0100      36                N/A     6/11   2/11
44056 DUCK FRF   0000      35                N/A     5/10   2/11
OREGON INLET NC  0100          360/ 11/ 15   N/A
HATTERAS NC      0100   38 41   30/ 12/ 16 1031.7R
CAPE LOOKOUT NC  0000   43      40/ 15/ 17 1030.1R
$$


USA.gov is the U.S. government's official web portal to all federal, state and local government web resources and services.